Retour au catalogue

FLOCK 4H 22

ActifScienceSSO
NORAD 66725·PAYLOAD·🇺🇸 United States

Lancé Nov 28, 2025 depuis Vandenberg Space Force Base

Loading…

Prochains Passages (prochaines 24 heures)

TLE

FraisSource: CelesTrak SupGP

Époque: Sep 14, 2026, 12:45 UTC

1 66725C 25276BM  26257.53138889  .00010866  00000+0  48804-3 0  2579
2 66725  97.4099 329.6033 0004286  84.6216 229.9337 15.21216475    19

Suivez FLOCK 4H 22 en temps réel avec AllMySat

Download on the App Store